• In Belarus
  • List of Countries
  • For 7 days
  • Water Temperature
  • Satellite Maps
  • Weather Map
  • Weather Widgets
  • user-avatar
    Login

    Hourly Weather Kavala

    Today, 24 September, Monday

    Time Temperature Precipitation Wind Pressure Humidity
    00:00 +24°C° 0 mm 1 mps 761 mmHg 63%
    01:00 +23°C° 0 mm 1 mps 760 mmHg 63%
    02:00 +23°C° 0 mm 1 mps 760 mmHg 63%
    03:00 +23°C° 0 mm 1 mps 759 mmHg 63%
    04:00 +22°C° 0 mm 1 mps 759 mmHg 64%
    05:00 +22°C° 0 mm 1 mps 759 mmHg 64%
    06:00 +23°C° 0 mm 1 mps 759 mmHg 60%
    07:00 +25°C° 0 mm 1 mps 758 mmHg 57%
    08:00 +26°C° 0 mm 1 mps 758 mmHg 51%
    09:00 +28°C° 0 mm 1 mps 758 mmHg 46%
    10:00 +30°C° 0 mm 2 mps 757 mmHg 40%
    11:00 +32°C° 0 mm 2 mps 757 mmHg 35%
    12:00 +34°C° 0 mm 3 mps 757 mmHg 34%
    13:00 +34°C° 0 mm 3 mps 756 mmHg 32%
    14:00 +35°C° 0 mm 4 mps 756 mmHg 31%
    15:00 +35°C° 0 mm 3 mps 756 mmHg 32%
    16:00 +34°C° 0 mm 3 mps 756 mmHg 34%
    17:00 +34°C° 0 mm 3 mps 756 mmHg 36%
    18:00 +30°C° 0 mm 3 mps 756 mmHg 43%
    19:00 +28°C° 0 mm 2 mps 757 mmHg 49%
    20:00 +25°C° 0 mm 2 mps 758 mmHg 55%
    21:00 +24°C° 0 mm 2 mps 759 mmHg 58%
    22:00 +23°C° 0 mm 2 mps 760 mmHg 61%
    23:00 +21°C° 0 mm 3 mps 760 mmHg 64%

    Tomorrow, 25 September, Tuesday

    Time Temperature Precipitation Wind Pressure Humidity
    00:00 +21°C° 0 mm 3 mps 761 mmHg 64%
    01:00 +20°C° 0 mm 3 mps 762 mmHg 63%
    02:00 +19°C° 0 mm 4 mps 762 mmHg 63%
    03:00 +19°C° 0 mm 4 mps 763 mmHg 61%
    04:00 +18°C° 0 mm 4 mps 763 mmHg 60%
    05:00 +17°C° 0 mm 5 mps 764 mmHg 58%
    06:00 +17°C° 0.1 mm 5 mps 765 mmHg 58%
    07:00 +18°C° 0.1 mm 4 mps 765 mmHg 57%
    08:00 +17°C° 0.1 mm 4 mps 766 mmHg 56%
    09:00 +19°C° 0.1 mm 4 mps 766 mmHg 50%
    10:00 +20°C° 0.1 mm 4 mps 766 mmHg 44%
    11:00 +21°C° 0.1 mm 4 mps 767 mmHg 38%
    12:00 +22°C° 0 mm 4 mps 766 mmHg 36%
    13:00 +23°C° 0 mm 4 mps 766 mmHg 34%
    14:00 +25°C° 0 mm 4 mps 766 mmHg 31%
    15:00 +23°C° 0 mm 4 mps 766 mmHg 34%
    16:00 +22°C° 0 mm 4 mps 766 mmHg 37%
    17:00 +21°C° 0 mm 4 mps 766 mmHg 41%
    18:00 +19°C° 0 mm 4 mps 766 mmHg 44%
    19:00 +18°C° 0 mm 4 mps 767 mmHg 48%
    20:00 +15°C° 0 mm 4 mps 768 mmHg 52%
    21:00 +15°C° 0 mm 5 mps 768 mmHg 49%
    22:00 +15°C° 0 mm 5 mps 769 mmHg 46%
    23:00 +14°C° 0 mm 6 mps 769 mmHg 43%

    Day after tomorrow, 26 September, Wednesday

    Time Temperature Precipitation Wind Pressure Humidity
    00:00 +14°C° 0 mm 6 mps 769 mmHg 42%
    01:00 +13°C° 0 mm 6 mps 770 mmHg 42%
    02:00 +13°C° 0 mm 6 mps 770 mmHg 41%
    03:00 +11°C° 0 mm 6 mps 770 mmHg 42%
    04:00 +11°C° 0 mm 6 mps 770 mmHg 43%
    05:00 +10°C° 0 mm 6 mps 770 mmHg 45%
    06:00 +11°C° 0 mm 6 mps 770 mmHg 43%
    07:00 +13°C° 0 mm 6 mps 771 mmHg 42%
    08:00 +12°C° 0 mm 7 mps 771 mmHg 41%
    09:00 +15°C° 0 mm 7 mps 771 mmHg 37%
    10:00 +16°C° 0 mm 7 mps 771 mmHg 33%
    11:00 +18°C° 0 mm 7 mps 771 mmHg 28%
    12:00 +18°C° 0 mm 7 mps 770 mmHg 27%
    13:00 +20°C° 0 mm 7 mps 770 mmHg 26%
    14:00 +20°C° 0 mm 7 mps 770 mmHg 25%
    15:00 +20°C° 0 mm 8 mps 769 mmHg 27%
    16:00 +18°C° 0 mm 8 mps 769 mmHg 28%
    17:00 +18°C° 0 mm 8 mps 769 mmHg 30%
    18:00 +16°C° 0 mm 8 mps 769 mmHg 35%
    19:00 +13°C° 0 mm 8 mps 770 mmHg 39%
    20:00 +12°C° 0 mm 8 mps 770 mmHg 44%
    21:00 +11°C° 0 mm 8 mps 771 mmHg 46%
    22:00 +10°C° 0 mm 8 mps 771 mmHg 48%
    23:00 +10°C° 0 mm 7 mps 771 mmHg 50%

    27 September, Thursday

    Time Temperature Precipitation Wind Pressure Humidity
    00:00 +9°C° 0 mm 7 mps 771 mmHg 50%
    01:00 +9°C° 0 mm 7 mps 771 mmHg 51%
    02:00 +9°C° 0 mm 7 mps 770 mmHg 52%
    03:00 +8°C° 0 mm 7 mps 770 mmHg 52%
    04:00 +8°C° 0 mm 7 mps 770 mmHg 52%
    05:00 +8°C° 0 mm 7 mps 769 mmHg 52%
    06:00 +9°C° 0 mm 7 mps 769 mmHg 48%
    07:00 +10°C° 0 mm 8 mps 769 mmHg 44%
    08:00 +11°C° 0 mm 8 mps 769 mmHg 40%
    09:00 +13°C° 0 mm 9 mps 768 mmHg 35%
    10:00 +16°C° 0 mm 9 mps 768 mmHg 29%
    11:00 +18°C° 0 mm 9 mps 767 mmHg 23%
    12:00 +19°C° 0 mm 9 mps 766 mmHg 22%
    13:00 +21°C° 0 mm 9 mps 766 mmHg 20%
    14:00 +22°C° 0 mm 9 mps 765 mmHg 19%
    15:00 +22°C° 0 mm 9 mps 764 mmHg 20%
    16:00 +21°C° 0 mm 9 mps 764 mmHg 22%
    17:00 +21°C° 0 mm 9 mps 764 mmHg 23%
    18:00 +18°C° 0 mm 8 mps 764 mmHg 27%
    19:00 +16°C° 0 mm 8 mps 764 mmHg 30%
    20:00 +13°C° 0 mm 8 mps 765 mmHg 33%
    21:00 +13°C° 0 mm 8 mps 765 mmHg 34%
    22:00 +12°C° 0 mm 8 mps 764 mmHg 36%
    23:00 +12°C° 0 mm 7 mps 764 mmHg 37%

    28 September, Friday

    Time Temperature Precipitation Wind Pressure Humidity
    00:00 +12°C° 0.1 mm 7 mps 764 mmHg 35%
    01:00 +12°C° 0.1 mm 7 mps 764 mmHg 34%
    02:00 +12°C° 0.1 mm 7 mps 763 mmHg 32%
    03:00 +12°C° 0.2 mm 7 mps 763 mmHg 32%
    04:00 +13°C° 0.2 mm 6 mps 763 mmHg 32%
    05:00 +13°C° 0.2 mm 6 mps 763 mmHg 31%
    06:00 +13°C° 0.2 mm 6 mps 763 mmHg 32%
    07:00 +14°C° 0.2 mm 6 mps 763 mmHg 32%
    08:00 +15°C° 0.2 mm 6 mps 763 mmHg 33%
    09:00 +16°C° 0.1 mm 6 mps 762 mmHg 33%
    10:00 +17°C° 0.1 mm 6 mps 762 mmHg 32%
    11:00 +20°C° 0.1 mm 6 mps 762 mmHg 32%
    12:00 +20°C° 0.3 mm 5 mps 761 mmHg 34%
    13:00 +20°C° 0.3 mm 5 mps 761 mmHg 35%
    14:00 +21°C° 0.3 mm 4 mps 761 mmHg 37%
    15:00 +20°C° 0.2 mm 4 mps 760 mmHg 42%
    16:00 +19°C° 0.2 mm 4 mps 760 mmHg 47%
    17:00 +18°C° 0.2 mm 3 mps 760 mmHg 52%
    18:00 +18°C° 0.2 mm 4 mps 760 mmHg 53%
    19:00 +17°C° 0.2 mm 4 mps 760 mmHg 54%
    20:00 +15°C° 0.2 mm 4 mps 761 mmHg 56%
    21:00 +15°C° 0.3 mm 4 mps 760 mmHg 57%
    22:00 +15°C° 0.3 mm 4 mps 760 mmHg 58%
    23:00 +15°C° 0.3 mm 4 mps 760 mmHg 59%

    29 September, Saturday

    Time Temperature Precipitation Wind Pressure Humidity
    00:00 +14°C° 0.1 mm 4 mps 760 mmHg 61%
    01:00 +14°C° 0.1 mm 4 mps 760 mmHg 62%
    02:00 +14°C° 0.1 mm 4 mps 759 mmHg 63%
    03:00 +14°C° 0.1 mm 4 mps 759 mmHg 64%
    04:00 +14°C° 0.1 mm 4 mps 759 mmHg 64%
    05:00 +14°C° 0.1 mm 4 mps 759 mmHg 65%
    06:00 +15°C° 0.1 mm 4 mps 759 mmHg 62%
    07:00 +17°C° 0.1 mm 3 mps 759 mmHg 59%
    08:00 +18°C° 0.1 mm 3 mps 759 mmHg 57%
    09:00 +20°C° 0 mm 3 mps 759 mmHg 51%
    10:00 +22°C° 0 mm 3 mps 759 mmHg 46%
    11:00 +25°C° 0 mm 2 mps 759 mmHg 40%
    12:00 +26°C° 0 mm 2 mps 759 mmHg 40%
    13:00 +26°C° 0 mm 2 mps 758 mmHg 39%
    14:00 +26°C° 0 mm 2 mps 758 mmHg 39%
    15:00 +26°C° 0 mm 2 mps 758 mmHg 42%
    16:00 +25°C° 0 mm 2 mps 758 mmHg 44%
    17:00 +25°C° 0 mm 1 mps 758 mmHg 47%
    18:00 +23°C° 0 mm 1 mps 759 mmHg 54%
    19:00 +21°C° 0 mm 1 mps 759 mmHg 61%
    20:00 +19°C° 0 mm 1 mps 759 mmHg 69%
    21:00 +19°C° 0 mm 1 mps 760 mmHg 69%
    22:00 +17°C° 0 mm 2 mps 760 mmHg 69%
    23:00 +17°C° 0 mm 2 mps 760 mmHg 69%
    Show more